Tracking 31023 objects as of 20-Jul-2025
HD Live streaming from Space Station
objects crossing your sky now

AAC-HSI-SAT1

Track AAC-HSI-SAT1 now!
10-day predictions


NORAD ID: 56225
Int'l Code: 2023-054AZ
Perigee: 534.8 km
Apogee: 548.6 km
Inclination: 97.4 °
Period: 95.3 minutes
Semi major axis: 6912 km
RCS: Unknown
Launch date: April 15, 2023
Source: United Kingdom (UK)
Launch site: AIR FORCE WESTERN TEST RANGE (AFWTR)
Your satellite tracking list
Your tracking list is empty




NASA's NSSDC Master Catalog

Two Line Element Set (TLE):
1 56225U 23054AZ  25200.78969328  .00001671  00000-0  10505-3 0  9994
2 56225  97.4148  83.0822 0009997 183.4554 176.6609 15.10529490125157
Source of the keplerian elements: AFSPC